iso_date,epoch_date,Year,Hour,Min,DOY,POS_DOY,Lat,Lon,BP,Ts,Ta,has_bp,has_ts,has_ta,BuoyID,Buoy_Type,Buoy_Owner,Logistics,Hemisphere
2014-08-14T23:19:40Z,1408058381,2014,23,0,226.972,226.972,71.93081,-141.0792,1016.9,-0.01,-999.0,yes,yes,no,300234061876910,UPTEMPO,PSC-UPTEMPO,SIZRS,North
2014-08-14T23:29:45Z,1408058986,2014,23,0,226.979,226.979,71.9302,-141.0826,1016.8,3.36,-999.0,yes,yes,no,300234061876910,UPTEMPO,PSC-UPTEMPO,SIZRS,North
2014-08-14T23:39:50Z,1408059590,2014,23,0,226.986,226.986,71.92968,-141.0856,1016.8,3.28,-999.0,yes,yes,no,300234061876910,UPTEMPO,PSC-UPTEMPO,SIZRS,North
2014-08-14T23:49:55Z,1408060195,2014,23,0,226.993,226.993,71.92934,-141.0876,1016.8,3.22,-999.0,yes,yes,no,300234061876910,UPTEMPO,PSC-UPTEMPO,SIZRS,North
2014-08-15T00:00:00Z,1408060800,2014,0,0,227.0,227.0,71.92904,-141.0894,1016.8,3.18,-999.0,yes,yes,no,300234061876910,UPTEMPO,PSC-UPTEMPO,SIZRS,North
2014-08-15T00:10:04Z,1408061405,2014,0,0,227.007,227.007,71.92876,-141.0913,1016.8,3.13,-999.0,yes,yes,no,300234061876910,UPTEMPO,PSC-UPTEMPO,SIZRS,North
2014-08-15T00:20:09Z,1408062010,2014,0,0,227.014,227.014,71.92843,-141.0929,1016.8,3.09,-999.0,yes,yes,no,300234061876910,UPTEMPO,PSC-UPTEMPO,SIZRS,North
2014-08-15T00:30:14Z,1408062614,2014,0,0,227.021,227.021,71.92812,-141.0944,1016.9,3.08,-999.0,yes,yes,no,300234061876910,UPTEMPO,PSC-UPTEMPO,SIZRS,North
2014-08-15T00:40:19Z,1408063219,2014,0,0,227.028,227.028,71.92782,-141.0959,1016.8,3.04,-999.0,yes,yes,no,300234061876910,UPTEMPO,PSC-UPTEMPO,SIZRS,North
2014-08-15T00:50:24Z,1408063824,2014,0,0,227.035,227.035,71.92753,-141.0974,1016.8,3.06,-999.0,yes,yes,no,300234061876910,UPTEMPO,PSC-UPTEMPO,SIZRS,North
2014-08-15T01:00:28Z,1408064429,2014,1,0,227.042,227.042,71.92728,-141.0987,1016.8,3.18,-999.0,yes,yes,no,300234061876910,UPTEMPO,PSC-UPTEMPO,SIZRS,North
2014-08-15T01:10:33Z,1408065034,2014,1,0,227.049,227.049,71.92706,-141.0999,1016.7,3.23,-999.0,yes,yes,no,300234061876910,UPTEMPO,PSC-UPTEMPO,SIZRS,North
2014-08-15T01:19:12Z,1408065552,2014,1,0,227.055,227.055,71.92686,-141.1012,1016.7,3.23,-999.0,yes,yes,no,300234061876910,UPTEMPO,PSC-UPTEMPO,SIZRS,North
2014-08-15T01:29:16Z,1408066157,2014,1,0,227.062,227.062,71.92667,-141.1028,1016.7,3.21,-999.0,yes,yes,no,300234061876910,UPTEMPO,PSC-UPTEMPO,SIZRS,North
2014-08-15T01:40:48Z,1408066848,2014,1,0,227.07,227.07,71.92651,-141.1043,1016.7,3.28,-999.0,yes,yes,no,300234061876910,UPTEMPO,PSC-UPTEMPO,SIZRS,North
2014-08-15T01:49:26Z,1408067366,2014,1,0,227.076,227.076,71.92636,-141.1059,1016.7,3.28,-999.0,yes,yes,no,300234061876910,UPTEMPO,PSC-UPTEMPO,SIZRS,North
2014-08-15T02:00:57Z,1408068058,2014,2,0,227.084,227.084,71.92625,-141.1076,1016.7,3.29,-999.0,yes,yes,no,300234061876910,UPTEMPO,PSC-UPTEMPO,SIZRS,North
2014-08-15T02:09:36Z,1408068576,2014,2,0,227.09,227.09,71.92619,-141.1091,1016.7,3.28,-999.0,yes,yes,no,300234061876910,UPTEMPO,PSC-UPTEMPO,SIZRS,North
2014-08-15T02:19:40Z,1408069181,2014,2,0,227.097,227.097,71.92615,-141.1106,1016.8,3.28,-999.0,yes,yes,no,300234061876910,UPTEMPO,PSC-UPTEMPO,SIZRS,North
2014-08-15T02:29:45Z,1408069786,2014,2,0,227.104,227.104,71.92616,-141.1122,1016.7,3.29,-999.0,yes,yes,no,300234061876910,UPTEMPO,PSC-UPTEMPO,SIZRS,North
2014-08-15T02:41:16Z,1408070477,2014,2,0,227.112,227.112,71.92623,-141.1139,1016.8,3.28,-999.0,yes,yes,no,300234061876910,UPTEMPO,PSC-UPTEMPO,SIZRS,North
2014-08-15T02:49:55Z,1408070995,2014,2,0,227.118,227.118,71.92628,-141.1152,1016.8,3.3,-999.0,yes,yes,no,300234061876910,UPTEMPO,PSC-UPTEMPO,SIZRS,North
2014-08-15T03:00:00Z,1408071600,2014,3,0,227.125,227.125,71.9264,-141.1167,1016.8,3.32,-999.0,yes,yes,no,300234061876910,UPTEMPO,PSC-UPTEMPO,SIZRS,North
2014-08-15T03:10:04Z,1408072205,2014,3,0,227.132,227.132,71.92651,-141.1182,1016.7,3.32,-999.0,yes,yes,no,300234061876910,UPTEMPO,PSC-UPTEMPO,SIZRS,North
2014-08-15T03:20:09Z,1408072810,2014,3,0,227.139,227.139,71.92661,-141.1196,1016.6,3.34,-999.0,yes,yes,no,300234061876910,UPTEMPO,PSC-UPTEMPO,SIZRS,North
2014-08-15T03:30:14Z,1408073414,2014,3,0,227.146,227.146,71.92674,-141.121,1016.6,3.35,-999.0,yes,yes,no,300234061876910,UPTEMPO,PSC-UPTEMPO,SIZRS,North
2014-08-15T03:40:19Z,1408074019,2014,3,0,227.153,227.153,71.92689,-141.1225,1016.6,3.36,-999.0,yes,yes,no,300234061876910,UPTEMPO,PSC-UPTEMPO,SIZRS,North
2014-08-15T03:50:24Z,1408074624,2014,3,0,227.16,227.16,71.92703,-141.1241,1016.6,3.37,-999.0,yes,yes,no,300234061876910,UPTEMPO,PSC-UPTEMPO,SIZRS,North
2014-08-15T04:00:28Z,1408075229,2014,4,0,227.167,227.167,71.92719,-141.1259,1016.5,3.38,-999.0,yes,yes,no,300234061876910,UPTEMPO,PSC-UPTEMPO,SIZRS,North
2014-08-15T04:10:33Z,1408075834,2014,4,0,227.174,227.174,71.92735,-141.1272,1016.5,3.41,-999.0,yes,yes,no,300234061876910,UPTEMPO,PSC-UPTEMPO,SIZRS,North
2014-08-15T04:19:12Z,1408076352,2014,4,0,227.18,227.18,71.92751,-141.1286,1016.6,3.41,-999.0,yes,yes,no,300234061876910,UPTEMPO,PSC-UPTEMPO,SIZRS,North
2014-08-15T04:30:43Z,1408077043,2014,4,0,227.188,227.188,71.92766,-141.1301,1016.6,3.41,-999.0,yes,yes,no,300234061876910,UPTEMPO,PSC-UPTEMPO,SIZRS,North
2014-08-15T04:40:48Z,1408077648,2014,4,0,227.195,227.195,71.92782,-141.1316,1016.5,3.41,-999.0,yes,yes,no,300234061876910,UPTEMPO,PSC-UPTEMPO,SIZRS,North
2014-08-15T04:49:26Z,1408078166,2014,4,0,227.201,227.201,71.92802,-141.1331,1016.5,3.43,-999.0,yes,yes,no,300234061876910,UPTEMPO,PSC-UPTEMPO,SIZRS,North
2014-08-15T04:59:31Z,1408078771,2014,5,0,227.208,227.208,71.9282,-141.1345,1016.5,3.45,-999.0,yes,yes,no,300234061876910,UPTEMPO,PSC-UPTEMPO,SIZRS,North
2014-08-15T05:09:36Z,1408079376,2014,5,0,227.215,227.215,71.92841,-141.136,1016.6,3.45,-999.0,yes,yes,no,300234061876910,UPTEMPO,PSC-UPTEMPO,SIZRS,North
2014-08-15T05:19:40Z,1408079981,2014,5,0,227.222,227.222,71.9286,-141.1375,1016.6,3.44,-999.0,yes,yes,no,300234061876910,UPTEMPO,PSC-UPTEMPO,SIZRS,North
2014-08-15T05:29:45Z,1408080586,2014,5,0,227.229,227.229,71.92881,-141.1391,1016.7,3.43,-999.0,yes,yes,no,300234061876910,UPTEMPO,PSC-UPTEMPO,SIZRS,North
2014-08-15T05:39:50Z,1408081190,2014,5,0,227.236,227.236,71.92903,-141.1407,1016.7,3.44,-999.0,yes,yes,no,300234061876910,UPTEMPO,PSC-UPTEMPO,SIZRS,North
2014-08-15T05:49:55Z,1408081795,2014,5,0,227.243,227.243,71.92922,-141.1422,1016.8,3.44,-999.0,yes,yes,no,300234061876910,UPTEMPO,PSC-UPTEMPO,SIZRS,North
2014-08-15T06:00:00Z,1408082400,2014,6,0,227.25,227.25,71.92943,-141.1437,1016.8,3.43,-999.0,yes,yes,no,300234061876910,UPTEMPO,PSC-UPTEMPO,SIZRS,North
2014-08-15T06:10:04Z,1408083005,2014,6,0,227.257,227.257,71.92964,-141.1453,1016.8,3.43,-999.0,yes,yes,no,300234061876910,UPTEMPO,PSC-UPTEMPO,SIZRS,North
2014-08-15T06:20:09Z,1408083610,2014,6,0,227.264,227.264,71.92986,-141.1466,1016.9,3.46,-999.0,yes,yes,no,300234061876910,UPTEMPO,PSC-UPTEMPO,SIZRS,North
2014-08-15T06:30:14Z,1408084214,2014,6,0,227.271,227.271,71.93005,-141.1481,1016.9,3.44,-999.0,yes,yes,no,300234061876910,UPTEMPO,PSC-UPTEMPO,SIZRS,North
2014-08-15T06:40:19Z,1408084819,2014,6,0,227.278,227.278,71.93025,-141.1495,1017.0,3.44,-999.0,yes,yes,no,300234061876910,UPTEMPO,PSC-UPTEMPO,SIZRS,North
2014-08-15T06:50:24Z,1408085424,2014,6,0,227.285,227.285,71.93044,-141.151,1017.0,3.44,-999.0,yes,yes,no,300234061876910,UPTEMPO,PSC-UPTEMPO,SIZRS,North
2014-08-15T07:00:28Z,1408086029,2014,7,0,227.292,227.292,71.93065,-141.1524,1017.0,3.43,-999.0,yes,yes,no,300234061876910,UPTEMPO,PSC-UPTEMPO,SIZRS,North
2014-08-15T07:10:33Z,1408086634,2014,7,0,227.299,227.299,71.93083,-141.1537,1017.0,3.43,-999.0,yes,yes,no,300234061876910,UPTEMPO,PSC-UPTEMPO,SIZRS,North
2014-08-15T07:19:12Z,1408087152,2014,7,0,227.305,227.305,71.93101,-141.1552,1016.9,3.43,-999.0,yes,yes,no,300234061876910,UPTEMPO,PSC-UPTEMPO,SIZRS,North
2014-08-15T07:29:16Z,1408087757,2014,7,0,227.312,227.312,71.93121,-141.1566,1016.9,3.4,-999.0,yes,yes,no,300234061876910,UPTEMPO,PSC-UPTEMPO,SIZRS,North
2014-08-15T07:40:48Z,1408088448,2014,7,0,227.32,227.32,71.93143,-141.1581,1016.9,3.41,-999.0,yes,yes,no,300234061876910,UPTEMPO,PSC-UPTEMPO,SIZRS,North
2014-08-15T07:49:26Z,1408088966,2014,7,0,227.326,227.326,71.93173,-141.1598,1016.9,3.38,-999.0,yes,yes,no,300234061876910,UPTEMPO,PSC-UPTEMPO,SIZRS,North
2014-08-15T07:59:31Z,1408089571,2014,8,0,227.333,227.333,71.93198,-141.1614,1016.9,3.37,-999.0,yes,yes,no,300234061876910,UPTEMPO,PSC-UPTEMPO,SIZRS,North
2014-08-15T08:11:02Z,1408090262,2014,8,0,227.341,227.341,71.93204,-141.1624,1016.9,3.36,-999.0,yes,yes,no,300234061876910,UPTEMPO,PSC-UPTEMPO,SIZRS,North
2014-08-15T08:19:40Z,1408090781,2014,8,0,227.347,227.347,71.93225,-141.1637,1016.9,3.35,-999.0,yes,yes,no,300234061876910,UPTEMPO,PSC-UPTEMPO,SIZRS,North
2014-08-15T08:29:45Z,1408091386,2014,8,0,227.354,227.354,71.9325,-141.1652,1016.9,3.36,-999.0,yes,yes,no,300234061876910,UPTEMPO,PSC-UPTEMPO,SIZRS,North
2014-08-15T08:39:50Z,1408091990,2014,8,0,227.361,227.361,71.93278,-141.1666,1016.9,3.39,-999.0,yes,yes,no,300234061876910,UPTEMPO,PSC-UPTEMPO,SIZRS,North
2014-08-15T08:49:55Z,1408092595,2014,8,0,227.368,227.368,71.93311,-141.1682,1016.9,3.44,-999.0,yes,yes,no,300234061876910,UPTEMPO,PSC-UPTEMPO,SIZRS,North
2014-08-15T09:00:00Z,1408093200,2014,9,0,227.375,227.375,71.9334,-141.1697,1016.9,3.46,-999.0,yes,yes,no,300234061876910,UPTEMPO,PSC-UPTEMPO,SIZRS,North
2014-08-15T09:10:04Z,1408093805,2014,9,0,227.382,227.382,71.93372,-141.1711,1016.9,3.47,-999.0,yes,yes,no,300234061876910,UPTEMPO,PSC-UPTEMPO,SIZRS,North
2014-08-15T09:20:09Z,1408094410,2014,9,0,227.389,227.389,71.93399,-141.1725,1016.9,3.52,-999.0,yes,yes,no,300234061876910,UPTEMPO,PSC-UPTEMPO,SIZRS,North
2014-08-15T09:30:14Z,1408095014,2014,9,0,227.396,227.396,71.9343,-141.1739,1016.9,3.55,-999.0,yes,yes,no,300234061876910,UPTEMPO,PSC-UPTEMPO,SIZRS,North
2014-08-15T09:40:19Z,1408095619,2014,9,0,227.403,227.403,71.9346,-141.1753,1016.9,3.55,-999.0,yes,yes,no,300234061876910,UPTEMPO,PSC-UPTEMPO,SIZRS,North
2014-08-15T09:50:24Z,1408096224,2014,9,0,227.41,227.41,71.93491,-141.1767,1016.9,3.55,-999.0,yes,yes,no,300234061876910,UPTEMPO,PSC-UPTEMPO,SIZRS,North
2014-08-15T10:00:28Z,1408096829,2014,10,0,227.417,227.417,71.93525,-141.1781,1017.1,3.56,-999.0,yes,yes,no,300234061876910,UPTEMPO,PSC-UPTEMPO,SIZRS,North
2014-08-15T10:10:33Z,1408097434,2014,10,0,227.424,227.424,71.93559,-141.1793,1017.0,3.52,-999.0,yes,yes,no,300234061876910,UPTEMPO,PSC-UPTEMPO,SIZRS,North
2014-08-15T10:19:12Z,1408097952,2014,10,0,227.43,227.43,71.93594,-141.1806,1017.1,3.38,-999.0,yes,yes,no,300234061876910,UPTEMPO,PSC-UPTEMPO,SIZRS,North
2014-08-15T10:30:43Z,1408098643,2014,10,0,227.438,227.438,71.93632,-141.1821,1017.1,3.12,-999.0,yes,yes,no,300234061876910,UPTEMPO,PSC-UPTEMPO,SIZRS,North
2014-08-15T10:40:48Z,1408099248,2014,10,0,227.445,227.445,71.93674,-141.1835,1017.1,2.96,-999.0,yes,yes,no,300234061876910,UPTEMPO,PSC-UPTEMPO,SIZRS,North
2014-08-15T10:49:26Z,1408099766,2014,10,0,227.451,227.451,71.93716,-141.1847,1017.0,2.81,-999.0,yes,yes,no,300234061876910,UPTEMPO,PSC-UPTEMPO,SIZRS,North
2014-08-15T10:59:31Z,1408100371,2014,11,0,227.458,227.458,71.93758,-141.1861,1017.0,2.72,-999.0,yes,yes,no,300234061876910,UPTEMPO,PSC-UPTEMPO,SIZRS,North
2014-08-15T11:09:36Z,1408100976,2014,11,0,227.465,227.465,71.93803,-141.1875,1016.9,2.66,-999.0,yes,yes,no,300234061876910,UPTEMPO,PSC-UPTEMPO,SIZRS,North
2014-08-15T11:19:40Z,1408101581,2014,11,0,227.472,227.472,71.93845,-141.189,1016.9,2.62,-999.0,yes,yes,no,300234061876910,UPTEMPO,PSC-UPTEMPO,SIZRS,North
2014-08-15T11:29:45Z,1408102186,2014,11,0,227.479,227.479,71.9389,-141.1903,1016.9,2.58,-999.0,yes,yes,no,300234061876910,UPTEMPO,PSC-UPTEMPO,SIZRS,North
2014-08-15T11:39:50Z,1408102790,2014,11,0,227.486,227.486,71.9393,-141.1917,1016.8,2.51,-999.0,yes,yes,no,300234061876910,UPTEMPO,PSC-UPTEMPO,SIZRS,North
2014-08-15T11:49:55Z,1408103395,2014,11,0,227.493,227.493,71.93971,-141.193,1016.9,2.46,-999.0,yes,yes,no,300234061876910,UPTEMPO,PSC-UPTEMPO,SIZRS,North
2014-08-15T12:01:26Z,1408104086,2014,12,0,227.501,227.501,71.94022,-141.1945,1016.9,2.45,-999.0,yes,yes,no,300234061876910,UPTEMPO,PSC-UPTEMPO,SIZRS,North
2014-08-15T12:10:04Z,1408104605,2014,12,0,227.507,227.507,71.94061,-141.1957,1016.8,2.4,-999.0,yes,yes,no,300234061876910,UPTEMPO,PSC-UPTEMPO,SIZRS,North
2014-08-15T12:20:09Z,1408105210,2014,12,0,227.514,227.514,71.94104,-141.1971,1016.8,2.4,-999.0,yes,yes,no,300234061876910,UPTEMPO,PSC-UPTEMPO,SIZRS,North
2014-08-15T12:30:14Z,1408105814,2014,12,0,227.521,227.521,71.94151,-141.1983,1016.7,2.4,-999.0,yes,yes,no,300234061876910,UPTEMPO,PSC-UPTEMPO,SIZRS,North
2014-08-15T12:40:19Z,1408106419,2014,12,0,227.528,227.528,71.94191,-141.1994,1016.8,2.45,-999.0,yes,yes,no,300234061876910,UPTEMPO,PSC-UPTEMPO,SIZRS,North
2014-08-15T12:50:24Z,1408107024,2014,12,0,227.535,227.535,71.94231,-141.2005,1016.8,2.48,-999.0,yes,yes,no,300234061876910,UPTEMPO,PSC-UPTEMPO,SIZRS,North
2014-08-15T13:00:28Z,1408107629,2014,13,0,227.542,227.542,71.9427,-141.2016,1016.8,2.49,-999.0,yes,yes,no,300234061876910,UPTEMPO,PSC-UPTEMPO,SIZRS,North
2014-08-15T13:10:33Z,1408108234,2014,13,0,227.549,227.549,71.94307,-141.2027,1016.8,2.48,-999.0,yes,yes,no,300234061876910,UPTEMPO,PSC-UPTEMPO,SIZRS,North
2014-08-15T13:19:12Z,1408108752,2014,13,0,227.555,227.555,71.94347,-141.2038,1016.8,2.45,-999.0,yes,yes,no,300234061876910,UPTEMPO,PSC-UPTEMPO,SIZRS,North
2014-08-15T13:29:16Z,1408109357,2014,13,0,227.562,227.562,71.94389,-141.205,1016.9,2.43,-999.0,yes,yes,no,300234061876910,UPTEMPO,PSC-UPTEMPO,SIZRS,North
2014-08-15T13:40:48Z,1408110048,2014,13,0,227.57,227.57,71.94431,-141.2062,1016.9,2.42,-999.0,yes,yes,no,300234061876910,UPTEMPO,PSC-UPTEMPO,SIZRS,North
2014-08-15T13:50:52Z,1408110653,2014,13,0,227.577,227.577,71.94476,-141.2076,1016.9,2.41,-999.0,yes,yes,no,300234061876910,UPTEMPO,PSC-UPTEMPO,SIZRS,North
2014-08-15T13:59:31Z,1408111171,2014,14,0,227.583,227.583,71.94518,-141.2086,1016.9,2.51,-999.0,yes,yes,no,300234061876910,UPTEMPO,PSC-UPTEMPO,SIZRS,North
2014-08-15T14:09:36Z,1408111776,2014,14,0,227.59,227.59,71.94565,-141.2096,1016.9,2.59,-999.0,yes,yes,no,300234061876910,UPTEMPO,PSC-UPTEMPO,SIZRS,North
2014-08-15T14:19:40Z,1408112381,2014,14,0,227.597,227.597,71.94614,-141.2105,1016.9,2.58,-999.0,yes,yes,no,300234061876910,UPTEMPO,PSC-UPTEMPO,SIZRS,North
2014-08-15T14:29:45Z,1408112986,2014,14,0,227.604,227.604,71.94665,-141.2114,1016.9,2.6,-999.0,yes,yes,no,300234061876910,UPTEMPO,PSC-UPTEMPO,SIZRS,North
2014-08-15T14:39:50Z,1408113590,2014,14,0,227.611,227.611,71.94717,-141.2125,1017.0,2.6,-999.0,yes,yes,no,300234061876910,UPTEMPO,PSC-UPTEMPO,SIZRS,North
2014-08-15T14:51:21Z,1408114282,2014,14,0,227.619,227.619,71.94777,-141.2136,1017.0,2.6,-999.0,yes,yes,no,300234061876910,UPTEMPO,PSC-UPTEMPO,SIZRS,North
2014-08-15T15:00:00Z,1408114800,2014,15,0,227.625,227.625,71.94826,-141.2145,1016.9,2.62,-999.0,yes,yes,no,300234061876910,UPTEMPO,PSC-UPTEMPO,SIZRS,North
2014-08-15T15:10:04Z,1408115405,2014,15,0,227.632,227.632,71.94884,-141.2156,1016.8,2.63,-999.0,yes,yes,no,300234061876910,UPTEMPO,PSC-UPTEMPO,SIZRS,North
2014-08-15T15:20:09Z,1408116010,2014,15,0,227.639,227.639,71.9494,-141.2167,1016.9,2.62,-999.0,yes,yes,no,300234061876910,UPTEMPO,PSC-UPTEMPO,SIZRS,North
2014-08-15T15:31:40Z,1408116701,2014,15,0,227.647,227.647,71.95,-141.2178,1016.9,2.62,-999.0,yes,yes,no,300234061876910,UPTEMPO,PSC-UPTEMPO,SIZRS,North
2014-08-15T15:40:19Z,1408117219,2014,15,0,227.653,227.653,71.95055,-141.2188,1016.9,2.61,-999.0,yes,yes,no,300234061876910,UPTEMPO,PSC-UPTEMPO,SIZRS,North
2014-08-15T15:50:24Z,1408117824,2014,15,0,227.66,227.66,71.95113,-141.2199,1016.8,2.62,-999.0,yes,yes,no,300234061876910,UPTEMPO,PSC-UPTEMPO,SIZRS,North
2014-08-15T16:00:28Z,1408118429,2014,16,0,227.667,227.667,71.95168,-141.2211,1016.7,2.62,-999.0,yes,yes,no,300234061876910,UPTEMPO,PSC-UPTEMPO,SIZRS,North
2014-08-15T16:10:33Z,1408119034,2014,16,0,227.674,227.674,71.95222,-141.2222,1016.7,2.64,-999.0,yes,yes,no,300234061876910,UPTEMPO,PSC-UPTEMPO,SIZRS,North
2014-08-15T16:19:12Z,1408119552,2014,16,0,227.68,227.68,71.95275,-141.2233,1016.8,2.65,-999.0,yes,yes,no,300234061876910,UPTEMPO,PSC-UPTEMPO,SIZRS,North
2014-08-15T16:30:43Z,1408120243,2014,16,0,227.688,227.688,71.95327,-141.2246,1016.7,2.68,-999.0,yes,yes,no,300234061876910,UPTEMPO,PSC-UPTEMPO,SIZRS,North
2014-08-15T16:40:48Z,1408120848,2014,16,0,227.695,227.695,71.95377,-141.2259,1016.6,2.69,-999.0,yes,yes,no,300234061876910,UPTEMPO,PSC-UPTEMPO,SIZRS,North
2014-08-15T16:49:26Z,1408121366,2014,16,0,227.701,227.701,71.95426,-141.2274,1016.6,2.71,-999.0,yes,yes,no,300234061876910,UPTEMPO,PSC-UPTEMPO,SIZRS,North
2014-08-15T16:59:31Z,1408121971,2014,17,0,227.708,227.708,71.95471,-141.2286,1016.5,2.72,-999.0,yes,yes,no,300234061876910,UPTEMPO,PSC-UPTEMPO,SIZRS,North
2014-08-15T17:11:02Z,1408122662,2014,17,0,227.716,227.716,71.95524,-141.2299,1016.5,2.73,-999.0,yes,yes,no,300234061876910,UPTEMPO,PSC-UPTEMPO,SIZRS,North
2014-08-15T17:19:40Z,1408123181,2014,17,0,227.722,227.722,71.95569,-141.2313,1016.4,2.74,-999.0,yes,yes,no,300234061876910,UPTEMPO,PSC-UPTEMPO,SIZRS,North
2014-08-15T17:29:45Z,1408123786,2014,17,0,227.729,227.729,71.95618,-141.2327,1016.3,2.75,-999.0,yes,yes,no,300234061876910,UPTEMPO,PSC-UPTEMPO,SIZRS,North
2014-08-15T17:39:50Z,1408124390,2014,17,0,227.736,227.736,71.95667,-141.2342,1016.4,2.76,-999.0,yes,yes,no,300234061876910,UPTEMPO,PSC-UPTEMPO,SIZRS,North
2014-08-15T17:49:55Z,1408124995,2014,17,0,227.743,227.743,71.95714,-141.2356,1016.3,2.76,-999.0,yes,yes,no,300234061876910,UPTEMPO,PSC-UPTEMPO,SIZRS,North
2014-08-15T18:01:26Z,1408125686,2014,18,0,227.751,227.751,71.95762,-141.2371,1016.3,2.77,-999.0,yes,yes,no,300234061876910,UPTEMPO,PSC-UPTEMPO,SIZRS,North
2014-08-15T18:10:04Z,1408126205,2014,18,0,227.757,227.757,71.95801,-141.2384,1016.3,2.77,-999.0,yes,yes,no,300234061876910,UPTEMPO,PSC-UPTEMPO,SIZRS,North
2014-08-15T18:20:09Z,1408126810,2014,18,0,227.764,227.764,71.95847,-141.24,1016.3,2.76,-999.0,yes,yes,no,300234061876910,UPTEMPO,PSC-UPTEMPO,SIZRS,North
2014-08-15T18:30:14Z,1408127414,2014,18,0,227.771,227.771,71.95893,-141.2415,1016.2,2.76,-999.0,yes,yes,no,300234061876910,UPTEMPO,PSC-UPTEMPO,SIZRS,North
2014-08-15T18:40:19Z,1408128019,2014,18,0,227.778,227.778,71.95939,-141.243,1016.3,2.76,-999.0,yes,yes,no,300234061876910,UPTEMPO,PSC-UPTEMPO,SIZRS,North
2014-08-15T18:50:24Z,1408128624,2014,18,0,227.785,227.785,71.95985,-141.2446,1016.3,2.75,-999.0,yes,yes,no,300234061876910,UPTEMPO,PSC-UPTEMPO,SIZRS,North
2014-08-15T19:00:28Z,1408129229,2014,19,0,227.792,227.792,71.96028,-141.2461,1016.2,2.74,-999.0,yes,yes,no,300234061876910,UPTEMPO,PSC-UPTEMPO,SIZRS,North
2014-08-15T19:10:33Z,1408129834,2014,19,0,227.799,227.799,71.96071,-141.2477,1016.2,2.72,-999.0,yes,yes,no,300234061876910,UPTEMPO,PSC-UPTEMPO,SIZRS,North
2014-08-15T19:19:12Z,1408130352,2014,19,0,227.805,227.805,71.96112,-141.2493,1016.3,2.7,-999.0,yes,yes,no,300234061876910,UPTEMPO,PSC-UPTEMPO,SIZRS,North
2014-08-15T19:29:16Z,1408130957,2014,19,0,227.812,227.812,71.96156,-141.2509,1016.2,2.68,-999.0,yes,yes,no,300234061876910,UPTEMPO,PSC-UPTEMPO,SIZRS,North
2014-08-15T19:40:48Z,1408131648,2014,19,0,227.82,227.82,71.96202,-141.2525,1016.1,2.68,-999.0,yes,yes,no,300234061876910,UPTEMPO,PSC-UPTEMPO,SIZRS,North
2014-08-15T19:49:26Z,1408132166,2014,19,0,227.826,227.826,71.96246,-141.2541,1016.1,2.66,-999.0,yes,yes,no,300234061876910,UPTEMPO,PSC-UPTEMPO,SIZRS,North
2014-08-15T19:59:31Z,1408132771,2014,20,0,227.833,227.833,71.96292,-141.2558,1016.1,2.65,-999.0,yes,yes,no,300234061876910,UPTEMPO,PSC-UPTEMPO,SIZRS,North
2014-08-15T20:09:36Z,1408133376,2014,20,0,227.84,227.84,71.9634,-141.2575,1016.1,2.65,-999.0,yes,yes,no,300234061876910,UPTEMPO,PSC-UPTEMPO,SIZRS,North
2014-08-15T20:19:40Z,1408133981,2014,20,0,227.847,227.847,71.96387,-141.2593,1016.0,2.66,-999.0,yes,yes,no,300234061876910,UPTEMPO,PSC-UPTEMPO,SIZRS,North
2014-08-15T20:29:45Z,1408134586,2014,20,0,227.854,227.854,71.96432,-141.261,1016.0,2.66,-999.0,yes,yes,no,300234061876910,UPTEMPO,PSC-UPTEMPO,SIZRS,North
2014-08-15T20:39:50Z,1408135190,2014,20,0,227.861,227.861,71.96481,-141.2627,1016.0,2.67,-999.0,yes,yes,no,300234061876910,UPTEMPO,PSC-UPTEMPO,SIZRS,North
2014-08-15T20:49:55Z,1408135795,2014,20,0,227.868,227.868,71.96532,-141.2644,1015.9,2.67,-999.0,yes,yes,no,300234061876910,UPTEMPO,PSC-UPTEMPO,SIZRS,North
2014-08-15T21:00:00Z,1408136400,2014,21,0,227.875,227.875,71.96582,-141.2661,1015.9,2.68,-999.0,yes,yes,no,300234061876910,UPTEMPO,PSC-UPTEMPO,SIZRS,North
2014-08-15T21:10:04Z,1408137005,2014,21,0,227.882,227.882,71.96632,-141.2677,1015.9,2.68,-999.0,yes,yes,no,300234061876910,UPTEMPO,PSC-UPTEMPO,SIZRS,North
2014-08-15T21:20:09Z,1408137610,2014,21,0,227.889,227.889,71.96686,-141.2693,1015.8,2.67,-999.0,yes,yes,no,300234061876910,UPTEMPO,PSC-UPTEMPO,SIZRS,North
2014-08-15T21:30:14Z,1408138214,2014,21,0,227.896,227.896,71.9674,-141.2709,1015.8,2.67,-999.0,yes,yes,no,300234061876910,UPTEMPO,PSC-UPTEMPO,SIZRS,North
2014-08-15T21:41:45Z,1408138906,2014,21,0,227.904,227.904,71.9681,-141.273,1015.8,2.67,-999.0,yes,yes,no,300234061876910,UPTEMPO,PSC-UPTEMPO,SIZRS,North
2014-08-15T21:50:24Z,1408139424,2014,21,0,227.91,227.91,71.96867,-141.2741,1015.7,2.66,-999.0,yes,yes,no,300234061876910,UPTEMPO,PSC-UPTEMPO,SIZRS,North
2014-08-15T22:01:55Z,1408140115,2014,22,0,227.918,227.918,71.96944,-141.2759,1015.6,2.66,-999.0,yes,yes,no,300234061876910,UPTEMPO,PSC-UPTEMPO,SIZRS,North
2014-08-15T22:10:33Z,1408140634,2014,22,0,227.924,227.924,71.96993,-141.277,1015.7,2.66,-999.0,yes,yes,no,300234061876910,UPTEMPO,PSC-UPTEMPO,SIZRS,North
2014-08-15T22:19:12Z,1408141152,2014,22,0,227.93,227.93,71.97057,-141.2784,1015.8,2.66,-999.0,yes,yes,no,300234061876910,UPTEMPO,PSC-UPTEMPO,SIZRS,North
2014-08-15T22:30:43Z,1408141843,2014,22,0,227.938,227.938,71.97128,-141.2801,1015.8,2.66,-999.0,yes,yes,no,300234061876910,UPTEMPO,PSC-UPTEMPO,SIZRS,North
2014-08-15T22:40:48Z,1408142448,2014,22,0,227.945,227.945,71.97198,-141.2816,1015.8,2.66,-999.0,yes,yes,no,300234061876910,UPTEMPO,PSC-UPTEMPO,SIZRS,North
2014-08-15T22:49:26Z,1408142966,2014,22,0,227.951,227.951,71.97265,-141.2832,1015.8,2.65,-999.0,yes,yes,no,300234061876910,UPTEMPO,PSC-UPTEMPO,SIZRS,North
2014-08-15T22:59:31Z,1408143571,2014,23,0,227.958,227.958,71.97338,-141.2848,1015.8,2.66,-999.0,yes,yes,no,300234061876910,UPTEMPO,PSC-UPTEMPO,SIZRS,North
2014-08-15T23:09:36Z,1408144176,2014,23,0,227.965,227.965,71.9741,-141.2864,1015.7,2.65,-999.0,yes,yes,no,300234061876910,UPTEMPO,PSC-UPTEMPO,SIZRS,North
2014-08-15T23:19:40Z,1408144781,2014,23,0,227.972,227.972,71.97485,-141.2881,1015.7,2.66,-999.0,yes,yes,no,300234061876910,UPTEMPO,PSC-UPTEMPO,SIZRS,North
2014-08-15T23:29:45Z,1408145386,2014,23,0,227.979,227.979,71.97563,-141.2898,1015.7,2.67,-999.0,yes,yes,no,300234061876910,UPTEMPO,PSC-UPTEMPO,SIZRS,North
2014-08-15T23:39:50Z,1408145990,2014,23,0,227.986,227.986,71.97645,-141.2916,1015.4,2.68,-999.0,yes,yes,no,300234061876910,UPTEMPO,PSC-UPTEMPO,SIZRS,North
2014-08-15T23:49:55Z,1408146595,2014,23,0,227.993,227.993,71.97727,-141.2933,1015.3,2.68,-999.0,yes,yes,no,300234061876910,UPTEMPO,PSC-UPTEMPO,SIZRS,North
2014-08-16T00:00:00Z,1408147200,2014,0,0,228.0,228.0,71.97812,-141.295,1015.1,2.7,-999.0,yes,yes,no,300234061876910,UPTEMPO,PSC-UPTEMPO,SIZRS,North
2014-08-16T00:10:04Z,1408147805,2014,0,0,228.007,228.007,71.97897,-141.2966,1015.1,2.71,-999.0,yes,yes,no,300234061876910,UPTEMPO,PSC-UPTEMPO,SIZRS,North
2014-08-16T00:20:09Z,1408148410,2014,0,0,228.014,228.014,71.97987,-141.2982,1015.1,2.72,-999.0,yes,yes,no,300234061876910,UPTEMPO,PSC-UPTEMPO,SIZRS,North
2014-08-16T00:30:14Z,1408149014,2014,0,0,228.021,228.021,71.98076,-141.2997,1015.1,2.72,-999.0,yes,yes,no,300234061876910,UPTEMPO,PSC-UPTEMPO,SIZRS,North
2014-08-16T00:40:19Z,1408149619,2014,0,0,228.028,228.028,71.98167,-141.3013,1015.1,2.7,-999.0,yes,yes,no,300234061876910,UPTEMPO,PSC-UPTEMPO,SIZRS,North
2014-08-16T00:50:24Z,1408150224,2014,0,0,228.035,228.035,71.98262,-141.3027,1015.0,2.68,-999.0,yes,yes,no,300234061876910,UPTEMPO,PSC-UPTEMPO,SIZRS,North